Regional Weather Roundup
Issued by NWS

Home | Current Version | Previous Version | Text Only | Print | Product List | Glossary On
Versions: 1 2 3 4 5 6 7 8 9 10 11 12 13 14 15 16 17 18 19 20 21 22 23 24 25 26 27 28 29 30 31 32 33 34 35 36 37 38 39 40 41 42 43 44 45 46 47 48 49 50
000
ASUS45 KSLC 302310
RWRUT

UTAH REGIONAL WEATHER ROUNDUP
NATIONAL WEATHER SERVICE SALT LAKE CITY UT
500 PM MDT SAT AUG 30 2014

UTZ001>011-023>025-310000-

NORTHERN UTAH

CITY           SKY/WX    TMP DP  RH WIND       PRES   REMARKS
HILL AFB       PTSUNNY   83  41  22 S7        29.90F
LOGAN          SUNNY     81  43  26 S8        29.87F
OGDEN          PTSUNNY   84  39  20 SW8       29.86F
PROVO AIRPORT  PTSUNNY   81  45  28 VRB5      29.90F
SALT LAKE CITY PTSUNNY   83  38  20 S8        29.85F
VERNAL         PTSUNNY   75  45  34 CALM      29.97F
WENDOVER       MOSUNNY   88  30  12 W13G18    29.84F
HEBER CITY     PTSUNNY   72  41  33 CALM      29.98F
WEST JORDAN    SUNNY     84  50  30 SE14      29.89F

$$

UTZ012>022-026-027-310000-

SOUTHERN UTAH

CITY           SKY/WX    TMP DP  RH WIND       PRES   REMARKS
BRYCE CANYON   PTSUNNY   76  34  21 SW15G24   30.18F
CEDAR CITY     SUNNY     86  29  12 S22G30    30.00F
MILFORD        SUNNY     90  31  12 S28G39    29.92F
MOAB/CYNLANDS  SUNNY     90  35  14 S6        29.88F
PRICE          PTSUNNY   80  37  21 SE6       30.02F
ST GEORGE      MOCLDY    99  39  12 W12G17    29.82F HX  94

$$

REGIONAL REPORTS     COLORADO/ARIZONA

CITY           SKY/WX    TMP DP  RH WIND       PRES   REMARKS
CRAIG, CO      CLOUDY    73  43  33 SW17G25   30.05S
GRAND JUNCTION CLOUDY    81  43  26 NW6       29.95F
RIFLE          CLOUDY    80  42  25 W12       30.01S
MONTROSE       CLOUDY    82  38  20 W13       30.05F
CORTEZ         SUNNY     84  33  16 VRB6      30.08F
PAGE, AZ       MOSUNNY   94  35  12 VRB6      29.91F
GRAND CANYON   CLOUDY    81  32  17 SW12G25   30.16F
KINGMAN        SUNNY     97  31   9 S17G30    29.90F HX  91
FLAGSTAFF      SUNNY     78  37  22 W12G18    30.21F

$$

REGIONAL REPORTS    NEVADA/IDAHO/WYOMING

CITY           SKY/WX    TMP DP  RH WIND       PRES   REMARKS
LAS VEGAS, NV  PTSUNNY  105  27   6 SW18G29   29.69F HX  97
ELY            SUNNY     84  25  11 SW14      29.99F
ELKO           MOSUNNY   83  30  14 W17G24    29.91F
POCATELLO, ID  MOSUNNY   74  41  30 W18       29.91F
BURLEY         PTSUNNY   73  46  38 W12       29.89F
EVANSTON, WY   SUNNY     69  42  37 SW16      30.07F
ROCK SPRINGS   CLOUDY    56  49  77 E6        30.07F

$$



USA.gov is the U.S. government's official web portal to all federal, state and local government web resources and services.